Find Starlink 4326

NORAD ID: 53081 Int'l Des: 2022-077 Owner: SPXS Country: US Constellation: starlink operational
LEOCIRCULARRETROGRADESSO

現在のビュー

3D地球を読み込み中...

About Starlink 4326

Starlink 4326 (NORAD 53081) is a starlink constellation satellite (v1.5) launched Jul 11, 2022 by SPXS of US. It operates in LEO, CIRCULAR, RETROGRADE, SSO orbit with a mass of 297.00 kg.

Starlink 4326について

説明を読み込み中...

次回通過

Passes for default location (London). Set your location on the main map for personalized predictions.

高度履歴

Loading altitude history...

軌道要素

1 53081U 22077AQ 26194.45299822 .00000668 00000-0 50151-4 0 9994
2 53081 97.2850 12.0151 0001247 99.6993 260.4376 15.05663409219839
Epoch: Jul 13, 2026 • Age: 15 hours

現在のステータス

高度 555.5 km
遠地点 / 近地点 N/A
速度 7.59 km/s
衛星直下点 43.45°N, 52.43°E
打ち上げ日 Jul 11, 2022
運用期間 4 years
タイプ internet

技術仕様

分類 Payload
質量 297.00 kg
乾燥質量 275.00 kg
総質量 297.00 kg
長さ 0.20 m
直径 2.80 m
スパン 9.00 m
形状 Box + pan
製造者 SPXS
バスタイプ Starlink
フェーズステータス In Orbit
所有者/国 SPXS/US

Most Searched